Temp
76 76 74 71 69 69 67 67 66 65 64 63 63 63 62 61 61 61 62 63 63 66 68 68 66 64 61 62 63 64 62 62 60 63 66 69 69 69 72 72 71 71 71
74 71 70 69 69 67 65 65 65 64 64 64 63 61 60 58 58 58 60 62 62 62 63 61 60 64 58 59 59 58 59 60 58 58 62 64 67 69 69 70 71 74 71
71 70 69 68 66 64 64 64 64 63 62 62 61 58 56 56 56 58 59 60 61 60 59 59 57 57 55 55 56 58 59 60 58 58 59 63 67 67 68 68 70 71 72
70 68 65 64 64 63 63 62 62 61 60 59 58 56 55 55 56 56 57 58 59 58 58 58 57 56 55 58 62 62 63 64 58 58 59 61 62 65 65 64 65 67 69
68 66 63 63 63 62 61 61 61 61 60 58 56 56 55 58 61 57 57 57 58 58 58 59 59 64 64 65 64 64 62 60 56 56 56 57 59 61 60 62 61 64 68
65 63 63 62 61 60 60 59 59 59 59 58 56 55 54 62 64 65 64 57 59 58 57 57 58 60 58 62 64 66 66 61 59 59 59 59 57 57 60 59 60 61 59
64 63 62 61 60 60 60 59 58 58 58 58 57 56 54 54 63 64 67 58 58 57 56 56 59 62 56 54 58 62 62 65 65 58 54 55 57 59 58 58 58 58 60
62 61 61 60 59 59 59 58 58 58 58 57 58 57 56 58 62 63 65 58 58 58 57 56 54 54 55 56 54 54 55 57 59 62 57 58 62 61 62 62 58 58 62
61 60 60 60 59 58 58 58 58 58 58 58 59 58 57 56 62 62 59 56 56 57 57 57 56 54 62 62 53 52 53 56 64 64 63 64 65 66 64 58 55 54 55
61 61 61 60 59 58 58 58 59 59 60 60 60 60 62 57 61 61 58 56 54 55 54 56 63 59 61 60 53 50 50 53 54 57 59 59 61 61 65 57 54 51 52
62 61 61 60 60 59 59 59 59 59 59 58 59 60 59 59 58 60 60 54 55 55 55 55 57 61 58 57 57 51 52 54 56 53 55 57 57 57 57 56 56 54 51
61 60 60 60 64 63 59 58 59 58 58 58 58 58 60 60 60 58 58 58 60 53 54 55 56 58 56 57 56 58 59 58 53 54 54 53 53 54 56 56 57 56 56
59 58 59 60 60 60 59 58 58 58 57 57 58 57 58 58 59 59 58 58 58 55 55 57 58 57 57 57 60 61 59 57 56 53 51 52 53 56 56 56 56 56 56
59 58 59 59 58 59 59 59 58 58 58 56 56 56 56 57 57 56 55 55 58 57 59 53 58 59 59 60 58 57 57 55 54 52 51 53 54 55 54 53 52 52 51
59 59 58 59 58 58 59 60 60 60 60 57 57 57 56 55 57 56 56 56 54 53 51 51 52 52 54 56 56 56 55 55 53 52 52 52 53 58 59 53 52 51 49
59 58 58 58 58 59 58 59 58 60 59 58 56 57 59 58 55 54 54 52 49 49 51 50 51 54 58 58 58 53 53 56 55 52 51 51 52 54 57 51 51 49 48
59 59 59 60 58 58 59 58 58 60 53 53 51 51 49 54 51 49 48 47 46 48 48 49 51 57 56 55 58 57 53 52 52 51 50 51 51 53 50 49 49 49 48
60 61 61 60 60 60 60 64 64 58 58 62 57 52 52 49 47 47 47 49 49 46 47 50 52 54 54 58 58 53 53 53 51 51 51 52 51 49 48 47 47 46 49
63 61 60 60 61 62 62 61 62 63 62 62 64 57 52 48 47 45 46 48 49 51 53 54 55 58 59 58 57 52 53 57 51 49 50 48 47 47 46 46 46 49 49
61 64 63 61 60 60 61 62 64 64 62 59 60 62 58 56 55 55 52 51 51 53 55 57 57 59 58 58 53 53 53 50 47 47 46 46 46 46 45 45 46 46 46
63 62 64 60 61 61 61 65 63 63 61 59 62 60 58 58 56 55 55 55 55 55 54 53 54 54 55 51 50 50 49 47 46 45 45 45 45 44 45 46 46 46 47
62 63 62 61 61 61 64 63 62 62 64 64 63 59 55 55 56 55 55 55 55 55 54 53 52 52 51 51 50 50 47 46 46 45 45 44 44 44 44 45 46 47 47
64 65 63 63 65 65 64 67 64 63 60 60 60 58 57 56 55 55 56 55 54 54 53 53 52 51 51 51 51 49 47 45 45 45 43 43 42 42 43 44 45 45 46
63 63 67 67 66 65 64 62 65 62 66 63 59 58 56 56 56 56 55 54 54 54 53 53 52 53 52 52 49 47 46 45 44 44 43 41 41 43 43 43 44 46 47
62 63 67 66 65 64 63 60 63 64 60 59 58 57 56 56 56 55 54 53 53 52 53 53 52 53 54 52 49 46 39 40 42 40 38 40 40 41 42 43 46 49 52
66 66 67 65 64 64 62 63 59 58 58 58 57 56 55 55 54 54 53 52 51 52 53 52 53 56 53 52 50 42 37 38 38 34 34 36 38 40 42 44 48 50 51
MSLP
1012.51 1012.91 1013.36 1013.90 1014.27 1014.49 1014.87 1015.23 1015.57 1015.78 1016.06 1016.19 1016.20 1016.23 1016.32 1016.24 1016.12 1015.86 1015.76 1015.53 1015.36 1015.08 1015.03 1014.97 1015.15 1015.34 1015.29 1015.06 1014.75 1014.49 1014.39 1014.26 1014.11 1013.38 1012.81 1012.02 1011.57 1011.01 1010.45 1010.11 1010.28 1009.81 1010.05
1012.63 1013.13 1013.60 1014.07 1014.50 1014.97 1015.40 1015.67 1015.84 1016.09 1016.26 1016.38 1016.49 1016.61 1016.70 1016.64 1016.52 1016.39 1016.15 1015.93 1015.84 1015.69 1015.74 1015.75 1015.92 1015.79 1015.78 1015.58 1015.27 1015.06 1014.85 1014.57 1014.55 1014.02 1013.08 1012.39 1011.73 1011.07 1010.50 1010.03 1009.50 1008.87 1009.15
1012.85 1013.37 1013.88 1014.35 1014.83 1015.33 1015.70 1015.93 1016.16 1016.40 1016.60 1016.81 1016.94 1017.10 1017.14 1017.06 1017.00 1016.85 1016.58 1016.21 1016.20 1016.25 1016.14 1016.15 1016.24 1016.03 1016.04 1015.73 1015.45 1015.14 1014.98 1014.69 1014.53 1014.28 1013.60 1012.63 1012.01 1011.54 1010.82 1010.48 1009.96 1009.46 1008.77
1012.95 1013.63 1014.24 1014.74 1015.12 1015.53 1015.91 1016.24 1016.52 1016.74 1017.05 1017.24 1017.42 1017.41 1017.42 1017.52 1017.41 1017.10 1016.81 1016.69 1016.41 1016.41 1016.31 1016.28 1016.20 1016.13 1016.05 1015.76 1015.40 1015.21 1014.92 1014.70 1014.52 1014.21 1013.64 1013.05 1012.57 1012.19 1011.67 1011.31 1010.67 1010.10 1009.56
1013.02 1013.72 1014.51 1014.97 1015.37 1015.79 1016.15 1016.51 1016.69 1016.94 1017.31 1017.52 1017.80 1017.77 1017.70 1017.58 1017.45 1017.09 1016.73 1016.95 1016.74 1016.61 1016.41 1016.44 1016.50 1016.31 1016.24 1015.89 1015.54 1015.15 1014.96 1014.73 1014.63 1014.30 1013.99 1013.50 1013.03 1012.55 1012.39 1012.19 1011.63 1010.82 1010.00
1013.14 1013.96 1014.63 1015.14 1015.65 1016.09 1016.41 1016.75 1016.95 1017.31 1017.53 1017.64 1017.79 1017.81 1017.90 1017.79 1017.43 1017.10 1016.72 1016.85 1016.70 1016.72 1016.72 1016.63 1016.57 1016.46 1016.29 1016.04 1015.77 1015.34 1014.96 1014.64 1014.40 1014.20 1014.07 1013.90 1013.49 1013.10 1012.56 1012.38 1011.99 1011.42 1010.73
1013.39 1014.15 1014.82 1015.34 1015.96 1016.27 1016.53 1016.80 1017.16 1017.35 1017.49 1017.64 1017.83 1017.81 1017.76 1017.46 1017.23 1016.87 1016.60 1016.52 1016.69 1016.64 1016.79 1016.85 1016.74 1016.65 1016.40 1016.19 1015.84 1015.49 1015.08 1014.74 1014.52 1014.50 1014.43 1013.96 1013.55 1013.10 1012.88 1012.40 1012.16 1011.87 1011.44
1013.74 1014.34 1014.97 1015.53 1016.08 1016.41 1016.74 1017.07 1017.22 1017.25 1017.46 1017.61 1017.57 1017.65 1017.60 1017.35 1017.15 1016.99 1016.78 1016.79 1016.68 1016.72 1016.82 1016.84 1016.77 1016.65 1016.41 1016.29 1016.12 1015.87 1015.51 1015.06 1014.58 1014.38 1014.26 1013.81 1013.33 1013.13 1013.05 1012.85 1012.62 1012.17 1011.39
1013.82 1014.30 1014.96 1015.57 1016.15 1016.56 1016.82 1017.11 1017.13 1017.15 1017.26 1017.26 1017.26 1017.28 1017.46 1017.41 1017.28 1017.22 1017.08 1016.92 1016.99 1016.97 1016.91 1016.84 1016.65 1016.54 1016.25 1016.14 1016.26 1016.34 1015.96 1015.35 1014.59 1014.16 1013.85 1013.40 1013.03 1012.87 1012.73 1012.75 1012.62 1012.23 1011.75
1013.98 1014.33 1014.81 1015.43 1016.04 1016.42 1016.61 1016.79 1016.75 1016.77 1016.81 1016.83 1017.04 1017.02 1017.12 1017.37 1017.37 1017.32 1017.17 1016.97 1017.11 1017.21 1017.12 1016.89 1016.55 1016.36 1016.12 1015.98 1016.13 1016.45 1016.28 1015.64 1015.14 1014.51 1014.07 1013.70 1013.28 1012.99 1012.66 1012.80 1012.83 1012.84 1012.47
1014.03 1014.40 1014.92 1015.41 1015.88 1016.20 1016.40 1016.54 1016.58 1016.65 1016.63 1016.78 1016.87 1016.75 1016.88 1017.06 1017.16 1017.25 1017.24 1017.24 1017.25 1017.23 1017.15 1016.97 1016.54 1016.22 1015.98 1015.75 1015.69 1015.78 1015.69 1015.41 1015.04 1014.93 1014.50 1014.00 1013.66 1013.39 1013.08 1012.88 1012.63 1012.62 1012.48
1014.05 1014.54 1015.03 1015.48 1015.75 1016.01 1016.29 1016.42 1016.49 1016.58 1016.72 1016.69 1016.85 1016.78 1016.50 1016.58 1016.83 1016.95 1017.07 1017.10 1017.06 1017.21 1017.15 1016.84 1016.42 1016.10 1015.73 1015.40 1015.25 1015.04 1014.82 1014.96 1014.97 1014.95 1014.76 1014.45 1014.13 1013.71 1013.23 1012.88 1012.51 1012.18 1011.95
1014.20 1014.72 1014.94 1015.37 1015.81 1015.98 1016.29 1016.46 1016.56 1016.61 1016.77 1016.74 1016.54 1016.45 1016.06 1016.24 1016.53 1016.52 1016.73 1016.82 1016.86 1016.90 1016.71 1016.60 1016.26 1015.79 1015.22 1015.10 1015.11 1014.99 1014.88 1014.87 1014.97 1015.05 1014.94 1014.53 1013.95 1013.34 1013.02 1012.72 1012.35 1011.96 1011.71
1014.27 1014.63 1014.87 1015.38 1015.70 1015.76 1015.92 1016.17 1016.50 1016.45 1016.34 1016.29 1016.14 1016.20 1016.23 1016.35 1016.38 1016.39 1016.53 1016.67 1016.57 1016.57 1016.42 1016.27 1015.94 1015.71 1015.43 1014.94 1014.87 1014.59 1014.34 1014.65 1014.78 1014.81 1014.56 1014.26 1013.72 1013.37 1012.98 1012.59 1012.59 1012.23 1012.12
1014.21 1014.51 1014.81 1015.16 1015.36 1015.51 1015.63 1015.85 1016.08 1015.78 1015.40 1015.57 1015.73 1015.78 1015.94 1016.24 1016.22 1016.08 1016.23 1016.25 1016.32 1016.33 1016.21 1016.09 1015.83 1015.66 1015.45 1015.25 1014.67 1014.52 1014.39 1014.40 1014.56 1014.60 1014.53 1014.12 1013.86 1013.33 1012.99 1012.53 1012.45 1012.34 1012.39
1014.03 1014.34 1014.65 1014.96 1015.14 1015.15 1015.25 1015.44 1015.23 1014.91 1015.14 1015.26 1015.33 1015.36 1015.30 1015.37 1015.42 1015.56 1015.69 1015.82 1016.06 1016.18 1016.33 1016.28 1015.88 1015.59 1015.28 1014.89 1014.69 1014.42 1014.41 1014.38 1014.34 1014.37 1014.28 1014.06 1013.64 1013.41 1013.13 1012.78 1012.62 1012.56 1012.38
1013.65 1013.96 1014.35 1014.64 1014.88 1014.86 1014.97 1015.03 1015.22 1014.70 1014.89 1015.02 1015.06 1015.01 1015.02 1014.97 1015.17 1015.25 1015.40 1015.68 1016.02 1016.25 1016.30 1015.95 1015.69 1015.18 1014.77 1014.60 1014.40 1014.30 1014.33 1014.24 1013.97 1014.09 1014.04 1013.74 1013.55 1013.46 1013.39 1013.21 1012.99 1012.65 1012.29
1013.34 1013.82 1013.99 1013.98 1014.11 1014.31 1014.32 1014.34 1014.34 1014.58 1014.74 1014.67 1014.26 1014.37 1014.32 1014.32 1014.55 1014.77 1015.19 1015.57 1015.97 1016.07 1015.66 1015.36 1015.07 1014.69 1014.46 1014.16 1014.07 1014.21 1014.23 1014.12 1013.99 1013.93 1013.76 1013.90 1014.08 1014.00 1013.71 1013.48 1013.07 1012.66 1012.13
1012.92 1013.40 1013.50 1013.41 1013.63 1013.79 1013.75 1013.63 1013.63 1013.64 1013.95 1013.82 1013.61 1013.71 1013.77 1014.01 1014.21 1014.50 1014.91 1015.32 1015.44 1015.21 1014.89 1014.57 1014.35 1014.09 1013.87 1013.75 1013.88 1013.86 1013.88 1013.86 1014.07 1014.26 1014.25 1014.45 1014.28 1014.14 1013.81 1013.41 1012.94 1012.47 1012.02
1012.58 1012.63 1012.77 1013.19 1013.36 1013.46 1013.47 1013.41 1013.29 1013.30 1013.34 1013.22 1013.28 1013.38 1013.76 1013.91 1014.19 1014.15 1014.24 1014.46 1014.57 1014.39 1014.21 1014.18 1013.95 1013.73 1013.82 1013.77 1013.93 1014.02 1014.04 1014.26 1014.56 1014.59 1014.58 1014.48 1014.24 1014.03 1013.80 1013.41 1012.98 1012.52 1012.02
1012.47 1012.38 1012.69 1012.87 1013.01 1013.05 1013.09 1013.05 1012.84 1012.80 1012.74 1012.83 1012.94 1012.90 1013.02 1013.63 1013.94 1013.98 1014.01 1014.04 1013.99 1014.05 1014.04 1013.94 1013.83 1013.81 1013.72 1014.02 1014.13 1014.03 1014.15 1014.55 1014.53 1014.57 1014.51 1014.35 1014.19 1014.09 1013.66 1013.22 1012.80 1012.32 1011.82
1012.40 1012.46 1012.48 1012.53 1012.51 1012.61 1012.57 1012.49 1012.41 1012.35 1012.40 1012.76 1013.00 1013.11 1012.98 1013.48 1013.66 1013.73 1013.75 1013.70 1013.72 1013.77 1013.82 1013.81 1013.81 1013.79 1013.80 1013.79 1013.76 1013.93 1014.29 1014.44 1014.44 1014.41 1014.41 1014.31 1014.14 1013.83 1013.44 1013.06 1012.55 1012.08 1011.59
1012.14 1012.14 1012.08 1012.24 1012.23 1012.18 1012.34 1012.02 1012.38 1012.41 1012.59 1012.60 1012.82 1013.16 1013.38 1013.49 1013.45 1013.44 1013.49 1013.55 1013.59 1013.67 1013.59 1013.68 1013.66 1013.61 1013.52 1013.35 1013.34 1013.69 1014.09 1014.28 1014.30 1014.24 1014.24 1014.12 1013.89 1013.57 1013.18 1012.83 1012.34 1011.84 1011.32
1011.72 1011.88 1012.04 1011.77 1012.15 1011.88 1011.93 1011.99 1011.90 1011.84 1012.20 1012.58 1012.74 1012.92 1013.19 1013.30 1013.29 1013.28 1013.33 1013.39 1013.54 1013.62 1013.48 1013.42 1013.36 1013.23 1013.20 1013.05 1013.34 1013.49 1013.76 1013.97 1014.02 1013.95 1013.82 1013.77 1013.52 1013.09 1012.76 1012.40 1011.91 1011.36 1010.81
1011.64 1011.87 1011.74 1011.50 1011.41 1011.59 1011.78 1011.91 1011.99 1012.24 1012.29 1012.68 1012.82 1012.96 1013.03 1013.00 1013.06 1013.20 1013.27 1013.42 1013.54 1013.60 1013.55 1013.29 1013.21 1012.94 1012.72 1012.82 1013.18 1013.53 1013.76 1013.79 1013.68 1013.61 1013.62 1013.40 1013.11 1012.64 1012.23 1011.79 1011.26 1010.69 1010.06
1011.51 1011.57 1011.45 1011.28 1011.19 1011.25 1011.53 1011.81 1011.98 1012.16 1012.42 1012.64 1012.83 1012.80 1012.87 1012.89 1013.04 1013.21 1013.38 1013.47 1013.52 1013.51 1013.47 1013.27 1012.93 1012.63 1012.58 1012.88 1013.12 1013.40 1013.58 1013.60 1013.54 1013.41 1013.35 1013.04 1012.52 1012.01 1011.56 1011.07 1010.55 1010.01 1009.44
Wind_Speed
9 8 7 6 6 7 6 6 6 6 7 6 5 6 6 7 6 7 6 5 6 4 5 5 9 9 5 6 6 6 5 4 4 4 3 6 5 6 6 4 8 9 5
8 8 7 7 7 7 6 7 6 6 5 5 5 7 7 7 7 7 7 5 7 9 9 10 8 7 7 6 5 6 5 5 3 6 5 5 5 6 5 5 5 4 5
8 8 7 7 7 7 7 7 7 7 7 7 7 7 7 7 7 6 6 6 7 7 6 7 5 6 5 4 4 5 5 5 4 3 4 3 4 6 5 4 5 7 6
9 9 8 8 7 7 7 7 7 7 7 7 7 6 7 6 6 5 6 6 7 6 6 6 6 7 6 8 8 8 7 7 4 4 4 5 3 7 5 8 9 6 7
10 10 8 8 8 7 7 7 7 7 7 7 7 7 5 5 4 6 6 5 6 5 5 6 6 13 15 12 7 9 5 4 3 3 3 3 5 7 7 6 5 6 7
10 9 8 8 7 7 7 7 7 5 5 7 6 6 6 3 8 11 9 4 5 5 5 6 4 9 10 14 15 16 13 6 5 4 4 5 4 4 4 4 3 6 5
11 8 8 7 7 7 7 7 6 5 4 5 5 5 4 3 9 11 12 5 3 5 5 5 3 4 7 6 12 14 13 14 14 5 4 3 3 4 5 6 7 4 4
10 8 7 8 7 6 6 6 5 4 5 4 4 4 3 3 9 11 11 6 6 4 6 4 3 2 4 6 7 8 8 7 7 6 5 7 4 5 3 4 3 5 5
9 8 8 8 7 7 6 5 4 4 3 4 4 4 4 0 5 8 6 5 6 4 3 2 2 2 2 5 5 6 8 7 10 15 15 8 8 8 5 3 5 6 5
8 8 8 8 7 7 6 5 3 2 3 2 5 6 6 5 3 4 4 3 5 3 1 4 6 5 4 6 4 4 6 7 7 10 10 7 6 5 7 4 2 2 3
8 7 7 7 7 7 5 3 3 3 1 3 3 4 6 7 6 7 4 1 1 3 2 2 3 10 9 9 6 4 6 5 9 5 4 5 6 5 4 4 2 1 2
8 7 7 7 5 5 5 3 2 2 3 5 4 5 5 6 8 8 8 7 2 1 4 3 5 10 12 12 7 10 11 7 4 4 4 4 3 3 4 3 3 4 3
8 7 7 6 4 6 5 5 3 3 3 5 6 4 4 4 5 9 10 10 9 4 4 5 11 11 13 7 6 8 5 3 2 4 3 4 3 4 5 4 4 6 5
8 7 6 6 5 6 4 3 2 4 4 4 1 3 2 4 5 4 4 4 8 5 3 5 6 7 9 2 3 1 3 1 2 2 2 4 4 5 3 2 2 2 2
7 6 6 5 6 5 5 5 5 6 5 2 3 3 2 3 5 7 7 3 2 1 4 2 4 3 3 4 3 3 2 3 3 3 3 3 4 6 5 2 2 3 2
7 5 5 5 5 5 4 4 9 8 9 8 8 5 3 6 9 7 7 5 0 3 2 2 4 4 5 4 3 3 2 1 2 3 3 3 4 4 4 3 2 2 3
7 6 4 5 4 5 4 5 5 5 4 9 10 11 10 10 6 8 6 4 3 5 2 4 5 5 4 4 3 2 1 2 1 3 3 4 4 4 5 4 4 3 3
5 3 5 5 5 6 5 5 5 5 6 7 11 13 13 15 10 12 3 1 1 3 3 5 5 4 3 3 2 2 2 3 2 4 4 5 5 3 4 4 4 4 6
4 3 4 1 2 4 3 2 4 4 4 6 5 3 8 11 8 6 9 3 3 4 4 4 4 4 3 1 2 0 2 3 3 4 5 4 4 4 4 5 5 8 9
4 6 3 2 1 3 3 4 4 4 5 3 2 3 3 2 1 3 4 4 4 5 4 2 2 1 2 1 2 3 4 5 4 4 4 3 4 4 4 5 5 6 6
4 4 6 3 3 4 4 5 4 2 2 2 2 3 7 3 2 0 3 2 2 3 2 1 2 3 4 3 3 3 4 4 4 3 3 4 4 4 5 5 5 5 7
2 4 4 5 5 5 5 4 2 1 2 4 3 2 5 1 2 2 3 3 3 3 2 3 2 2 3 3 1 3 5 4 3 3 3 3 4 5 5 5 6 7 7
4 5 5 5 6 6 4 3 2 3 2 3 4 4 3 2 3 4 3 3 3 3 3 3 2 2 1 1 3 5 5 3 0 1 2 4 5 5 4 6 7 8 8
4 3 4 7 3 5 4 3 2 5 5 3 3 3 4 3 3 3 3 3 4 3 3 3 3 4 1 2 5 5 4 3 1 2 4 5 5 6 5 6 7 9 8
3 4 5 2 4 2 2 1 2 4 5 4 3 3 3 3 3 3 3 4 4 4 4 5 3 4 5 6 8 7 6 3 2 4 4 6 7 8 7 7 9 9 10
5 4 3 2 2 2 4 2 4 4 4 3 3 2 3 2 3 3 4 4 3 3 5 3 5 9 3 6 6 8 3 4 6 7 5 5 5 5 6 8 12 10 10
Wind_Direction
136 137 115 97 97 96 92 86 91 76 81 70 70 53 60 43 24 20 6 8 23 30 37 46 39 42 21 17 3 13 13 18 359 323 308 307 308 307 291 253 233 242 193
120 112 113 112 100 91 95 87 83 84 89 67 66 62 63 38 21 13 357 8 27 29 54 53 44 31 26 13 354 359 10 356 344 319 306 319 300 296 288 317 303 242 192
132 128 129 123 111 102 100 91 76 79 70 56 59 61 68 44 25 1 1 25 62 49 36 73 43 33 16 358 0 3 2 332 321 315 301 309 335 351 344 350 345 341 336
118 110 99 88 97 97 97 95 89 86 82 68 57 62 62 59 25 1 5 20 77 54 40 60 54 33 17 6 11 4 354 349 332 323 324 337 355 349 2 6 353 347 337
112 104 103 100 100 99 95 93 92 87 103 93 68 47 56 46 20 8 4 25 96 67 38 28 63 36 28 23 17 10 345 350 330 327 335 344 358 358 6 338 326 325 321
115 112 114 112 110 108 106 113 104 93 104 120 105 84 49 24 26 27 21 33 128 107 69 39 63 37 20 11 4 4 358 352 360 354 355 359 332 316 324 340 326 350 338
117 120 122 119 116 119 126 114 115 120 104 91 124 111 89 25 17 18 24 22 149 137 101 71 44 26 20 4 355 357 358 0 6 349 337 305 300 312 327 325 343 334 305
125 127 127 122 127 131 121 129 136 136 144 152 124 132 116 27 21 14 27 32 29 98 104 113 107 48 4 20 2 353 345 337 346 344 334 296 303 328 11 351 334 320 324
136 137 134 133 140 142 148 162 180 167 196 184 172 166 141 116 16 9 25 23 37 83 129 201 185 220 355 21 21 352 336 326 336 338 335 322 41 28 51 34 5 4 349
141 144 137 140 149 156 152 157 204 209 229 198 192 203 193 181 222 315 14 16 24 24 209 274 284 301 0 346 359 326 320 304 330 325 334 336 351 354 10 63 55 18 328
131 130 132 142 152 154 166 188 204 247 266 268 258 255 195 186 208 231 270 353 19 346 18 293 308 338 331 309 238 255 237 254 304 325 331 344 347 337 331 359 355 191 322
128 129 132 143 146 151 174 216 254 254 280 284 271 262 239 196 187 220 236 229 240 247 299 301 311 313 306 313 327 293 294 331 350 10 355 330 328 318 314 318 310 312 262
131 138 142 160 172 181 192 216 229 254 260 269 267 273 259 146 188 214 225 240 250 236 249 274 306 314 305 297 334 322 7 357 8 16 332 304 272 283 300 336 307 313 304
143 151 159 171 188 183 200 226 239 253 247 224 9 22 70 163 209 219 238 265 256 272 292 305 290 305 310 175 310 329 101 40 35 273 301 292 302 317 301 283 290 308 322
152 159 169 178 176 196 218 208 227 230 170 191 225 202 211 183 226 195 188 233 241 270 325 327 334 340 319 303 307 317 313 12 12 316 312 318 311 320 311 311 307 318 11
154 164 182 189 196 201 207 259 246 205 214 220 230 212 243 217 188 201 222 251 161 33 340 295 294 285 279 264 274 279 267 352 313 305 297 299 302 316 317 319 343 344 324
167 183 192 200 200 198 212 206 221 277 249 252 249 247 226 230 183 212 237 289 193 136 217 266 264 261 267 269 294 271 220 227 279 304 291 297 312 326 353 351 332 326 308
175 204 207 195 199 197 197 209 194 208 220 239 247 233 243 242 235 247 176 157 257 235 234 241 251 264 256 265 306 252 256 271 305 278 328 350 18 11 352 335 317 305 314
161 240 226 162 273 177 195 231 243 251 203 230 243 246 252 252 241 261 163 197 242 265 249 240 229 245 262 329 345 179 240 307 349 23 54 23 4 348 314 308 310 318 323
200 190 172 157 142 244 246 250 253 266 254 278 288 170 144 93 328 273 221 206 218 238 254 292 342 39 339 44 341 18 38 51 59 47 25 353 322 325 323 319 316 313 310
187 199 207 199 227 241 240 239 208 225 245 278 179 150 157 153 266 104 131 118 117 97 98 84 348 14 54 77 62 46 56 98 72 48 0 342 333 327 309 299 297 301 301
236 216 201 215 229 244 253 241 213 206 334 109 217 226 176 109 161 97 107 98 111 124 91 82 36 34 119 108 81 55 104 86 42 11 341 329 315 298 296 298 305 307 309
256 226 195 227 228 242 258 158 272 22 350 80 95 131 192 175 86 95 91 97 85 74 50 47 53 357 177 148 87 122 120 111 2 323 310 297 287 281 281 295 300 302 298
282 335 263 229 195 172 144 187 185 167 153 106 100 84 92 95 84 88 97 87 77 53 37 10 324 310 222 211 120 119 124 138 217 258 295 276 272 282 283 281 284 280 282
293 293 296 91 164 184 82 256 36 96 84 93 77 95 109 84 32 77 70 82 67 44 348 330 317 317 310 108 135 138 160 184 316 287 282 274 267 273 274 273 276 278 289
250 272 174 77 81 146 193 110 111 98 101 86 100 88 115 77 83 104 90 76 44 4 353 336 335 320 57 111 107 123 140 280 282 276 270 267 268 269 270 278 285 290 293